Flag for Belarus Weather past 2 weeks in Barysaw, Belarus

Now
81 °F

Sunny.


Feels Like: 80 °F
Forecast: 61 / 88 °F
Wind: No wind

Location: Minsk

Current Time: Aug 4, 2015 at 10:54:24 AM

Latest Report: Aug 4, 2015 at 10:30 AM


Visibility: 10 mi

Pressure: 30.15 "Hg

Humidity: 37%

Dew point: 52 °F

Location of BarysawLocation

Historic Weather in Barysaw — Graph

°F

Barysaw temperature yesterday

Maximum temperature yesterday: 84 °F (at 6:00 PM)
Minimum temperature yesterday: 50 °F (at 1:00 AM)
Average temperature yesterday: 68 °F

Past Weeks' High & Low Weather Summary

 TemperatureHumidityPressure
High84 °F (Jul 26, 12:30 PM)100% (Jul 23, 9:30 PM)30.30 "Hg (Jul 23, 9:30 PM)
Low41 °F (Aug 2, 5:00 AM)25% (Aug 3, 6:00 PM)29.53 "Hg (Jul 20, 9:00 AM)
Average63 °F69%29.91 "Hg
* Reported Jul 20 9:00 AM — Aug 4 9:30 AM, Barysaw, Weather by CustomWeather, © 2015

Note: Actual official high and low records may vary slightly from our data, if they occured in-between our weather recording intervals... More about our weather records

Advertising

Barysaw weather history for previous 24 hours

 ConditionsComfort  
Time TempWeatherWind HumidityBarometerVisibility
9:30 AM
Tue, Aug 4
75 °FSunny.No wind44%30.15 "Hg10 mi
9:00 AM73 °FSunny.No wind50%30.15 "Hg10 mi
8:30 AM70 °FSunny.No wind57%30.15 "Hg10 mi
8:00 AM66 °FSunny.No wind68%30.15 "Hg10 mi
7:30 AM61 °FSunny.1 mph83%30.15 "Hg10 mi
7:00 AM57 °FSunny.No wind88%30.15 "Hg10 mi
6:30 AM55 °FSunny.No wind88%30.15 "Hg10 mi
6:00 AM54 °FClear.No wind94%30.15 "Hg10 mi
5:30 AM54 °FClear.No wind88%30.15 "Hg10 mi
5:00 AM54 °FClear.No wind88%30.15 "Hg10 mi
4:30 AM55 °FClear.No wind82%30.15 "Hg10 mi
4:00 AM54 °FClear.No wind88%30.15 "Hg10 mi
3:30 AM55 °FClear.No wind88%30.15 "Hg10 mi
3:00 AM55 °FClear.No wind88%30.15 "Hg10 mi
2:30 AM55 °FClear.No wind88%30.15 "Hg10 mi
2:00 AM57 °FClear.No wind82%30.15 "Hg10 mi
1:30 AM57 °FClear.No wind82%30.15 "Hg10 mi
1:00 AM57 °FClear.No wind82%30.15 "Hg10 mi
12:30 AM59 °FClear.No wind77%30.15 "Hg10 mi
12:00 AM59 °FClear.No wind82%30.15 "Hg10 mi
11:30 PM
Mon, Aug 3
59 °FClear.No wind82%30.15 "Hg10 mi
11:00 PM61 °FClear.No wind77%30.15 "Hg10 mi
10:30 PM63 °FClear.No wind73%30.15 "Hg10 mi
10:00 PM64 °FSunny.No wind73%30.15 "Hg10 mi
9:30 PM66 °FSunny.No wind64%30.15 "Hg10 mi
9:00 PM68 °FSunny.No wind64%30.12 "Hg10 mi
8:30 PM72 °FSunny.No wind53%30.12 "Hg10 mi
8:00 PM77 °FSunny.No wind39%30.12 "Hg10 mi
7:30 PM82 °FSunny.1 mph30%30.12 "Hg10 mi
7:00 PM82 °FPassing clouds.6 mph28%30.12 "HgN/A
6:30 PM82 °FPassing clouds.3 mph26%30.12 "HgN/A
6:00 PM84 °FPassing clouds.6 mph25%30.12 "HgN/A
5:30 PM82 °FPassing clouds.6 mph28%30.15 "HgN/A
5:00 PM82 °FPassing clouds.6 mph28%30.15 "HgN/A
4:30 PM82 °FPassing clouds.6 mph28%30.15 "HgN/A
4:00 PM82 °FPassing clouds.8 mph26%30.15 "HgN/A
3:30 PM82 °FPassing clouds.8 mph26%30.15 "HgN/A
3:00 PM82 °FPassing clouds.8 mph30%30.15 "HgN/A
2:30 PM82 °FPartly sunny.6 mph28%30.18 "HgN/A
2:00 PM82 °FPartly sunny.3 mph28%30.18 "HgN/A
1:30 PM81 °FPartly sunny.6 mph32%30.18 "HgN/A
1:00 PM79 °FPartly sunny.6 mph32%30.18 "HgN/A
12:30 PM81 °FPassing clouds.6 mph30%30.18 "HgN/A
12:00 PM79 °FPassing clouds.6 mph34%30.18 "HgN/A
11:30 AM79 °FPassing clouds.6 mph34%30.18 "HgN/A
11:00 AM77 °FPassing clouds.6 mph39%30.18 "HgN/A
10:30 AM73 °FPassing clouds.6 mph47%30.18 "HgN/A
10:00 AM72 °FPassing clouds.6 mph47%30.18 "HgN/A
Weather by CustomWeather, © 2015

See weather overviewHow to use our weather pages